Preview of NWS' New Version of Forecast
This preview is not operational and should not be used for support decisions.
Latest weather observations around

Bar Harbor, Hancock County-Bar Harbor Airport (KBHB)

Using English Units (Switch to International System of Units)
Date/ Time (EDT) Wind (mph) Vis. (mi) Weather Sky Cond. Temp (°F) Rel. Humidity Wind Chill (°F) Heat Index (°F) Pressure Precip. (in)
Air Dwpt 6 hour Altimeter (inHg) Sea level (inHg) 1 hr 3 hr 6 hr
Max Min
May 20 14:56 SSW 7 10 Cloudy BKN004 BKN034 OVC090 63 62     97%     29.79 29.8 0    
May 20 14:23 Calm 10 Light Rain FEW016 SCT070 OVC100 63 61     94%     29.79   0    
May 20 13:56 SW 3 10 Light Rain SCT006 BKN028 OVC070 62 61     96%     29.79 29.8 0   0
May 20 13:16 SSW 6 10 Light Rain SCT006 SCT012 OVC065 61 57     88%     29.78   0    
May 20 12:56 SW 5 10 Cloudy BKN006 BKN055 OVC100 61 59     93%     29.79 29.8 0    
May 20 12:47 7 10 Cloudy OVC006 61 59     94%     29.78   0    
May 20 12:08 SW 5 10 Light Rain OVC004 59 57     94%     29.78   0    
May 20 11:56 SW 7 10 Light Rain OVC002 58 57     97%     29.79 29.8 0    
May 20 10:56 SW 7 7 Cloudy OVC002 57 56     96%     29.78 29.79 0 0  
May 20 10:54 SW 8 6 Fog/Mist OVC002 57 55     94%     29.78   0    
May 20 09:56 SSW 10 2.5 Fog/Mist OVC002 56 55     97%     29.78 29.79 0    
May 20 09:51 SW 11 2 Light Rain and Fog/Mist OVC002 55 55     100%     29.79   0    
May 20 09:39 SW 8 1 Fog/Mist OVC002 55 55     100%     29.79        
May 20 08:56 SSW 8 0.5 Fog OVC002 54 53     97%     29.8 29.82 0    
May 20 08:44 SSW 9 0.5 Fog OVC002 54 54     100%     29.81   0    
May 20 08:33 SSW 11 1 Fog/Mist OVC002 54 54     100%     29.81   0    
May 20 08:25 SW 13 2.5 Fog/Mist OVC002 54 54     100%     29.81   0    
May 20 07:56 SSW 11 10 Light Rain OVC004 52 52     100%     29.82 29.83 0   0
May 20 06:56 SSW 13 10 Cloudy OVC004 52 51     97%     29.84 29.85 0    
May 20 05:56 SSW 10 10 Cloudy OVC004 51 50     96%     29.86 29.87 0    
May 20 04:56 SW 10 10 Cloudy OVC004 51 50     96%     29.87 29.88   0  
May 20 03:56 SSW 13 10 Cloudy OVC004 50 50     100% 45   29.88 29.89      
May 20 03:51 SSW 13 10 Cloudy OVC004 52 50     94%     29.88        
May 20 02:56 SSW 14 10 Cloudy OVC002 51 50     96%     29.91 29.92 0    
May 20 01:56 SSW 13 3 Fog/Mist OVC002 50 50     100% 45   29.93 29.95 0   1
May 20 01:49 SSW 14 2 Fog/Mist OVC002 52 50     94%     29.94   0    
May 20 01:20 SSW 13 1.75 Light Rain and Fog/Mist OVC004 52 50     94%     29.96   0    
May 20 00:56 SSW 11 5 Light Rain and Fog/Mist OVC004 51 50     96%     29.98 29.99 0    
May 20 00:20 SSW 10 2.5 Light Rain and Fog/Mist OVC004 52 50     94%     30.01   0    
May 19 23:56 SSW 8 5 Rain and Fog/Mist OVC006 51 50     96%     30.03 30.04 0    
May 19 23:35 S 8 3 Rain and Fog/Mist OVC006 52 50     94%     30.05   0    
May 19 22:56 S 11 6 Rain and Fog/Mist OVC004 51 50     96%     30.07 30.08 0 0  
May 19 22:36 ESE 3 4 Rain and Fog/Mist OVC004 50 48     94% 49   30.08   0    
May 19 22:20 S 7 3 Rain and Fog/Mist OVC006 50 48     94% 47   30.09   0    
May 19 22:04 5 1.75 Heavy Rain and Fog/Mist OVC006 50 48     94% 48   30.11   0    
May 19 21:56 5 3 Rain and Fog/Mist OVC006 49 48     97% 47   30.11 30.13 0    
May 19 21:34 E 7 5 Rain and Fog/Mist OVC008 48 46     93% 45   30.12   0    
May 19 20:56 E 5 8 Light Rain OVC014 48 47     96% 46   30.16 30.17 0    
May 19 19:56 E 5 8 Light Rain OVC020 48 46     93% 46   30.21 30.22 0   0
May 19 18:56 SSE 8 10 Mostly Cloudy BKN028 52 44     74%     30.24 30.26      
May 19 17:56 SSE 10 10 Mostly Clear FEW100 52 43     71%     30.29 30.3      
May 19 16:56 SSE 11 10 Clear CLR 53 39     59%     30.32 30.33      
May 19 15:56 SSE 10 10 Clear CLR 55 34     45%     30.35 30.36      
May 19 14:56 S 7 10 Clear CLR 56 31     38%     30.38 30.39      
May 19 13:56 S 10 10 Clear CLR 56 31     38%     30.4 30.42      
May 19 12:56 SSW 13 10 Clear CLR 58 33     39%     30.42 30.44      
May 19 11:56 S 10 10 Clear CLR 59 32     36%     30.44 30.45      
May 19 10:56 SSW 13 10 Clear CLR 58 35     42%     30.45 30.46      
May 19 09:56 ESE 7 10 Clear CLR 56 36     47%     30.45 30.47      
May 19 08:56 Calm 10 Clear CLR 54 35     49%     30.47 30.48      
May 19 07:56 Calm 10 Clear CLR 48 38     68%     30.48 30.49      
May 19 06:56 Calm 10 Clear CLR 44 40     85%     30.49 30.5      
May 19 05:56 Calm 10 Clear CLR 38 37     97%     30.48 30.49      
May 19 03:56 NNW 3 10 Clear CLR 35 34     96% 32   30.47 30.48      
May 19 02:56 Calm 10 Clear CLR 36 35     96%     30.47 30.48      
May 19 01:56 Calm 10 Clear CLR 37 35     92%     30.48 30.49      
May 19 00:56 Calm 10 Clear CLR 38 36     92%     30.47 30.48      
May 18 23:56 Calm 10 Clear CLR 43 39     86%     30.47 30.49      
May 18 22:56 SSW 5 10 Clear CLR 43 39     86% 40   30.45 30.46      
May 18 21:56 SW 5 10 Clear CLR 45 39     80% 43   30.44 30.45      
May 18 20:56 SSW 8 10 Clear CLR 46 38     73% 42   30.44 30.45      
May 18 19:56 SSW 7 10 Clear CLR 50 34     54% 47   30.42 30.44      
May 18 18:56 SSW 8 10 Clear CLR 54 32     43%     30.39 30.41      
May 18 17:56 SSW 10 10 Clear CLR 55 33     43%     30.39 30.4      
May 18 16:56   10 Clear CLR 57 33     40%     30.38 30.4      
May 18 15:56 3 10 Clear CLR 61        %     30.39 30.4      
May 18 14:56 N 11 10 Clear CLR 60 23     24%     30.39 30.41      
May 18 13:56 NE 8 10 Clear CLR 59 23     25%     30.4 30.42      
May 18 12:56 6 10 Clear CLR 57 23     27%     30.41 30.42      
May 18 11:56 NE 10 10 Clear CLR 57 24     28%     30.41 30.42      
May 18 10:56 NNE 10 10 Clear CLR 55 24     30%     30.41 30.42      
May 18 09:56 NNE 10 10 Clear CLR 53 25     33%     30.39 30.4      
May 18 08:56 NNE 18 10 Clear CLR 51 25     36%     30.38 30.39      
May 18 07:56 N 13 10 Clear CLR 48 29     47% 43   30.37 30.38      
May 18 06:56 N 11 10 Clear CLR 45 28     51% 39   30.35 30.36      
May 18 05:56 N 8 10 Clear CLR 43 27     53% 38   30.32 30.34      
May 18 04:56 N 7 10 Clear CLR 44 25     47% 40   30.29 30.3      
May 18 03:56 NNE 13 10 Cloudy OVC075 47 26     44% 41   30.26 30.27      
May 18 02:56 NNE 14 10 Cloudy BKN075 OVC100 50 28     42% 45   30.24 30.25      
May 18 01:56 N 11 10 Cloudy OVC075 53 32     45%     30.22 30.23      
May 18 00:56 N 9 10 Cloudy OVC065 55 38     52%     30.19 30.2      
May 17 23:56 N 9 10 Cloudy OVC065 57 41     55%     30.16 30.17      
May 17 22:56 NNE 9 10 Cloudy OVC060 60 44     55%     30.12 30.13      
May 17 21:56 NNE 5 10 Cloudy BKN065 OVC080 59 52     78%     30.09 30.1      
May 17 20:56 Calm 10 Cloudy SCT070 OVC090 59 53     81%     30.06 30.07      
May 17 19:56 SSW 7 10 Cloudy BKN070 OVC095 58 52     81%     30.03 30.04      
May 17 18:56 SSW 8 10 Partly Cloudy FEW070 SCT085 60 52     75%     30.01 30.02      
May 17 17:56 SSW 9 10 Partly Cloudy SCT080 64 54     70%     29.98 29.99      
May 17 16:56 SSW 9 10 Mostly Clear FEW060 67 54     63%     29.98 29.99      
May 17 15:56 SSW 7 10 Mostly Cloudy BKN065 69 54     59%     29.97 29.98      
May 17 14:56 6 10 Mostly Cloudy BKN055 70 52     53%     29.97 29.98      
May 17 13:56 NNW 5 10 Mostly Clear FEW050 70 51     51%     29.98 29.99      
May 15 02:38 Calm 3 Fog/Mist SCT008 45 45     100%     29.87        
May 13 23:56 SSW 14 10 Cloudy OVC004 44 43     96% 37   30.1 30.11      
May 13 20:29 SSW 13 10 Cloudy OVC004 45 45     100% 38   30.11        
May 12 15:56 SSW 16 10 Clear CLR 53 29     39%     30.13 30.14      
May 12 04:56 Calm 10 Clear CLR 33 27     78%     30.21 30.22      
May 11 09:56 NW 9 10 Clear CLR 51 31     46%     29.88 29.89      
Jun 11 23:56 WSW 6 10 Clear   62 56     80%     29.84 29.85      
Notice The following observation data may not be complete
Jun 11 10:56   10 Clear CLR   59      %     29.86 29.87      
Jun 10 19:56 SSW 9 10 Clear CLR 59 51     75%     29.96 29.97      
Jun 09 05:56 E 6 10 Cloudy FEW050 BKN090 OVC110 51 45     79%     29.75 29.76 0    
Jun 08 08:56 SSW 10 10 Clear CLR 62 49     62%     30 30.01      
Jun 07 10:56 NNE 5 10 Clear CLR 65 41     42%     29.93 29.94      
Jun 06 03:12 NE 9 10 Mostly Cloudy BKN015 46 41     81% 42   29.99